12-01-2022, 00:00:00,    345,    0.0,    2.1,   0.00,   0.00, 1031.0,   97.8, -999.0
12-01-2022, 00:00:11,    345,    0.0,    2.2,   0.00,   0.00, 1031.0,   97.8, -999.0
12-01-2022, 00:00:20,    345,    0.0,    2.2,   0.00,   0.00, 1031.0,   97.9, -999.0
12-01-2022, 00:00:30,    345,    0.0,    2.2,   0.00,   0.00, 1031.0,   97.9, -999.0
12-01-2022, 00:00:41,    345,    0.0,    2.2,   0.00,   0.00, 1031.0,   98.0, -999.0
12-01-2022, 00:00:50,    345,    0.0,    2.1,   0.00,   0.00, 1031.0,   98.0, -999.0
12-01-2022, 00:01:00,    345,    0.0,    2.2,   0.00,   0.00, 1031.0,   97.9, -999.0
12-01-2022, 00:01:10,    345,    0.0,    2.2,   0.00,   0.00, 1031.0,   98.1, -999.0
12-01-2022, 00:01:20,    345,    0.0,    2.2,   0.00,   0.00, 1031.0,   98.0, -999.0
12-01-2022, 00:01:30,    345,    0.0,    2.2,   0.00,   0.00, 1031.0,   98.1, -999.0
12-01-2022, 00:01:40,    345,    0.0,    2.2,   0.00,   0.00, 1031.0,   98.0, -999.0
12-01-2022, 00:01:50,    345,    0.0,    2.2,   0.00,   0.00, 1031.0,   98.1, -999.0
12-01-2022, 00:02:00,    345,    0.0,    2.2,   0.00,   0.00, 1031.0,   98.1, -999.0
12-01-2022, 00:02:10,    345,    0.0,    2.2,   0.00,   0.00, 1031.0,   98.1, -999.0
12-01-2022, 00:02:20,    345,    0.0,    2.2,   0.00,   0.00, 1031.0,   98.1, -999.0
12-01-2022, 00:02:30,    345,    0.0,    2.2,   0.00,   0.00, 1031.0,   98.0, -999.0
12-01-2022, 00:02:40,    345,    0.0,    2.2,   0.00,   0.00, 1031.0,   98.1, -999.0
12-01-2022, 00:02:50,    345,    0.0,    2.2,   0.00,   0.00, 1031.0,   98.2, -999.0
12-01-2022, 00:02:59,    345,    0.0,    2.2,   0.00,   0.00, 1031.0,   98.1, -999.0
12-01-2022, 00:03:10,    345,    0.0,    2.2,   0.00,   0.00, 1031.1,   98.1, -999.0
12-01-2022, 00:03:20,    345,    0.0,    2.2,   0.00,   0.00, 1031.1,   98.1, -999.0
12-01-2022, 00:03:29,    345,    0.0,    2.1,   0.00,   0.00, 1031.1,   98.1, -999.0
12-01-2022, 00:03:39,    345,    0.0,    2.2,   0.00,   0.00, 1031.1,   98.1, -999.0
12-01-2022, 00:03:49,    345,    0.0,    2.2,   0.00,   0.00, 1031.1,   98.0, -999.0
12-01-2022, 00:03:59,    345,    0.0,    2.2,   0.00,   0.00, 1031.1,   98.0, -999.0
12-01-2022, 00:04:09,    345,    0.0,    2.2,   0.00,   0.00, 1031.1,   98.0, -999.0
12-01-2022, 00:04:19,    345,    0.0,    2.2,   0.00,   0.00, 1031.1,   97.9, -999.0
12-01-2022, 00:04:29,    345,    0.0,    2.2,   0.00,   0.00, 1031.1,   97.9, -999.0
12-01-2022, 00:04:39,    345,    0.0,    2.1,   0.00,   0.00, 1031.1,   97.8, -999.0
12-01-2022, 00:04:49,    345,    0.0,    2.1,   0.00,   0.00, 1031.2,   98.0, -999.0
12-01-2022, 00:04:59,    345,    0.0,    2.1,   0.00,   0.00, 1031.2,   97.9, -999.0
12-01-2022, 00:05:09,    345,    0.0,    2.1,   0.00,   0.00, 1031.2,   97.8, -999.0
12-01-2022, 00:05:19,    345,    0.0,    2.1,   0.00,   0.00, 1031.1,   97.8, -999.0
12-01-2022, 00:05:29,    345,    0.0,    2.1,   0.00,   0.00, 1031.1,   97.7, -999.0
12-01-2022, 00:05:39,    345,    0.0,    2.1,   0.00,   0.00, 1031.1,   97.8, -999.0
12-01-2022, 00:05:49,    345,    0.0,    2.0,   0.00,   0.00, 1031.2,   97.8, -999.0
12-01-2022, 00:05:59,    345,    0.0,    2.2,   0.00,   0.00, 1031.2,   97.8, -999.0
12-01-2022, 00:06:08,    345,    0.0,    2.1,   0.00,   0.00, 1031.2,   97.8, -999.0
12-01-2022, 00:06:19,    345,    0.0,    2.1,   0.00,   0.00, 1031.2,   97.8, -999.0
12-01-2022, 00:06:29,    345,    0.0,    2.1,   0.00,   0.00, 1031.2,   97.8, -999.0
12-01-2022, 00:06:38,    345,    0.0,    2.1,   0.00,   0.00, 1031.2,   97.9, -999.0
12-01-2022, 00:06:49,    345,    0.0,    2.1,   0.00,   0.00, 1031.2,   97.7, -999.0
12-01-2022, 00:06:58,    345,    0.0,    2.1,   0.00,   0.00, 1031.2,   97.7, -999.0
12-01-2022, 00:07:08,    345,    0.0,    2.1,   0.00,   0.00, 1031.2,   97.7, -999.0
12-01-2022, 00:07:18,    345,    0.0,    2.1,   0.00,   0.00, 1031.2,   97.6, -999.0
12-01-2022, 00:07:28,    345,    0.0,    2.1,   0.00,   0.00, 1031.2,   97.7, -999.0
12-01-2022, 00:07:38,    344,    0.0,    2.1,   0.00,   0.00, 1031.1,   97.7, -999.0
12-01-2022, 00:07:48,    345,    0.0,    2.1,   0.00,   0.00, 1031.2,   97.7, -999.0
12-01-2022, 00:07:58,    345,    0.0,    2.1,   0.00,   0.00, 1031.2,   97.8, -999.0
12-01-2022, 00:08:08,    345,    0.0,    2.1,   0.00,   0.00, 1031.2,   97.8, -999.0
12-01-2022, 00:08:18,    345,    0.0,    2.1,   0.00,   0.00, 1031.2,   97.7, -999.0
12-01-2022, 00:08:28,    345,    0.0,    2.1,   0.00,   0.00, 1031.2,   97.6, -999.0
12-01-2022, 00:08:38,    345,    0.0,    2.0,   0.00,   0.00, 1031.2,   97.6, -999.0
12-01-2022, 00:08:48,    345,    0.0,    2.1,   0.00,   0.00, 1031.2,   97.5, -999.0
12-01-2022, 00:08:58,    345,    0.0,    2.1,   0.00,   0.00, 1031.2,   97.5, -999.0
12-01-2022, 00:09:07,    345,    0.0,    2.1,   0.00,   0.00, 1031.2,   97.5, -999.0
12-01-2022, 00:09:18,    345,    0.0,    2.1,   0.00,   0.00, 1031.2,   97.6, -999.0
12-01-2022, 00:09:28,    345,    0.0,    2.1,   0.00,   0.00, 1031.2,   97.7, -999.0
12-01-2022, 00:09:37,    345,    0.0,    2.1,   0.00,   0.00, 1031.2,   97.8, -999.0
12-01-2022, 00:09:47,    345,    0.0,    2.1,   0.00,   0.00, 1031.2,   97.7, -999.0
12-01-2022, 00:09:58,    345,    0.0,    2.0,   0.00,   0.00, 1031.2,   97.7, -999.0
12-01-2022, 00:10:07,    345,    0.0,    2.0,   0.00,   0.00, 1031.2,   97.7, -999.0
12-01-2022, 00:10:17,    345,    0.0,    2.1,   0.00,   0.00, 1031.3,   97.7, -999.0
12-01-2022, 00:10:27,    345,    0.0,    2.0,   0.00,   0.00, 1031.3,   97.6, -999.0
12-01-2022, 00:10:37,    345,    0.0,    2.0,   0.00,   0.00, 1031.2,   97.6, -999.0
12-01-2022, 00:10:47,    345,    0.0,    2.0,   0.00,   0.00, 1031.2,   97.6, -999.0
12-01-2022, 00:10:57,    345,    0.0,    2.0,   0.00,   0.00, 1031.2,   97.5, -999.0
12-01-2022, 00:11:07,    345,    0.0,    2.0,   0.00,   0.00, 1031.2,   97.5, -999.0
12-01-2022, 00:11:17,    345,    0.0,    2.0,   0.00,   0.00, 1031.2,   97.5, -999.0
12-01-2022, 00:11:27,    345,    0.0,    2.0,   0.00,   0.00, 1031.2,   97.5, -999.0
12-01-2022, 00:11:37,    345,    0.0,    2.0,   0.00,   0.00, 1031.2,   97.6, -999.0
12-01-2022, 00:11:47,    345,    0.0,    2.0,   0.00,   0.00, 1031.2,   97.5, -999.0
12-01-2022, 00:11:57,    345,    0.0,    2.0,   0.00,   0.00, 1031.3,   97.5, -999.0
12-01-2022, 00:12:07,    345,    0.0,    2.0,   0.00,   0.00, 1031.2,   97.5, -999.0
12-01-2022, 00:12:16,    345,    0.0,    2.0,   0.00,   0.00, 1031.3,   97.6, -999.0
12-01-2022, 00:12:27,    345,    0.0,    1.9,   0.00,   0.00, 1031.2,   97.6, -999.0
12-01-2022, 00:12:37,    345,    0.0,    1.9,   0.00,   0.00, 1031.2,   97.5, -999.0
12-01-2022, 00:12:46,    345,    0.0,    1.9,   0.00,   0.00, 1031.2,   97.4, -999.0
12-01-2022, 00:12:57,    345,    0.0,    1.9,   0.00,   0.00, 1031.2,   97.5, -999.0
12-01-2022, 00:13:07,    345,    0.0,    1.9,   0.00,   0.00, 1031.2,   97.5, -999.0
12-01-2022, 00:13:16,    345,    0.0,    1.8,   0.00,   0.00, 1031.2,   97.6, -999.0
12-01-2022, 00:13:26,    345,    0.0,    1.9,   0.00,   0.00, 1031.2,   97.5, -999.0
12-01-2022, 00:13:36,    345,    0.0,    1.9,   0.00,   0.00, 1031.2,   97.5, -999.0
12-01-2022, 00:13:46,    345,    0.0,    1.8,   0.00,   0.00, 1031.2,   97.5, -999.0
12-01-2022, 00:13:56,    345,    0.0,    1.8,   0.00,   0.00, 1031.2,   97.5, -999.0
12-01-2022, 00:14:06,    345,    0.0,    1.8,   0.00,   0.00, 1031.2,   97.5, -999.0
12-01-2022, 00:14:16,    345,    0.0,    1.9,   0.00,   0.00, 1031.3,   97.4, -999.0
12-01-2022, 00:14:26,    345,    0.0,    1.9,   0.00,   0.00, 1031.3,   97.6, -999.0
12-01-2022, 00:14:36,    345,    0.0,    1.9,   0.00,   0.00, 1031.3,   97.6, -999.0
12-01-2022, 00:14:46,    345,    0.0,    1.9,   0.00,   0.00, 1031.3,   97.6, -999.0
12-01-2022, 00:14:56,    345,    0.0,    1.9,   0.00,   0.00, 1031.3,   97.6, -999.0
12-01-2022, 00:15:06,    345,    0.0,    1.9,   0.00,   0.00, 1031.3,   97.6, -999.0
12-01-2022, 00:15:16,    345,    0.0,    1.9,   0.00,   0.00, 1031.3,   97.6, -999.0
12-01-2022, 00:15:26,    345,    0.0,    1.9,   0.00,   0.00, 1031.3,   97.5, -999.0
12-01-2022, 00:15:36,    345,    0.0,    1.8,   0.00,   0.00, 1031.3,   97.6, -999.0
12-01-2022, 00:15:46,    345,    0.0,    1.8,   0.00,   0.00, 1031.3,   97.7, -999.0
12-01-2022, 00:15:55,    345,    0.0,    1.9,   0.00,   0.00, 1031.3,   97.6, -999.0
12-01-2022, 00:16:06,    345,    0.0,    1.8,   0.00,   0.00, 1031.3,   97.6, -999.0
12-01-2022, 00:16:16,    345,    0.0,    1.9,   0.00,   0.00, 1031.3,   97.5, -999.0
12-01-2022, 00:16:25,    345,    0.0,    1.8,   0.00,   0.00, 1031.3,   97.6, -999.0
12-01-2022, 00:16:35,    345,    0.0,    1.9,   0.00,   0.00, 1031.3,   97.6, -999.0
12-01-2022, 00:16:45,    345,    0.0,    1.8,   0.00,   0.00, 1031.3,   97.6, -999.0
12-01-2022, 00:16:55,    345,    0.0,    1.8,   0.00,   0.00, 1031.3,   97.7, -999.0
12-01-2022, 00:17:05,    345,    0.0,    1.8,   0.00,   0.00, 1031.3,   97.7, -999.0
12-01-2022, 00:17:15,    345,    0.0,    1.9,   0.00,   0.00, 1031.3,   97.8, -999.0
12-01-2022, 00:17:25,    345,    0.0,    1.9,   0.00,   0.00, 1031.3,   97.7, -999.0
12-01-2022, 00:17:35,    345,    0.0,    1.8,   0.00,   0.00, 1031.3,   97.7, -999.0
12-01-2022, 00:17:45,    345,    0.0,    1.8,   0.00,   0.00, 1031.3,   97.8, -999.0
12-01-2022, 00:17:55,    345,    0.0,    1.8,   0.00,   0.00, 1031.4,   97.7, -999.0
12-01-2022, 00:18:05,    346,    0.0,    1.8,   0.00,   0.00, 1031.3,   97.8, -999.0
12-01-2022, 00:18:15,    345,    0.0,    1.9,   0.00,   0.00, 1031.3,   97.8, -999.0
12-01-2022, 00:18:25,    345,    0.0,    1.8,   0.00,   0.00, 1031.3,   97.8, -999.0
12-01-2022, 00:18:35,    345,    0.0,    1.8,   0.00,   0.00, 1031.3,   97.9, -999.0
12-01-2022, 00:18:45,    345,    0.0,    1.8,   0.00,   0.00, 1031.4,   97.7, -999.0
12-01-2022, 00:18:55,    344,    0.0,    1.8,   0.00,   0.00, 1031.3,   97.7, -999.0
12-01-2022, 00:19:04,    344,    0.0,    1.8,   0.00,   0.00, 1031.4,   97.7, -999.0
12-01-2022, 00:19:15,    345,    0.0,    1.8,   0.00,   0.00, 1031.4,   97.6, -999.0
12-01-2022, 00:19:25,    345,    0.0,    1.7,   0.00,   0.00, 1031.4,   97.6, -999.0
12-01-2022, 00:19:34,    345,    0.0,    1.8,   0.00,   0.00, 1031.4,   97.6, -999.0
12-01-2022, 00:19:45,    344,    0.0,    1.7,   0.00,   0.00, 1031.4,   97.5, -999.0
12-01-2022, 00:19:54,    345,    0.0,    1.7,   0.00,   0.00, 1031.4,   97.5, -999.0
12-01-2022, 00:20:04,    344,    0.0,    1.7,   0.00,   0.00, 1031.4,   97.5, -999.0
12-01-2022, 00:20:14,    344,    0.0,    1.7,   0.00,   0.00, 1031.4,   97.6, -999.0
12-01-2022, 00:20:24,    344,    0.0,    1.7,   0.00,   0.00, 1031.3,   97.6, -999.0
12-01-2022, 00:20:34,    344,    0.0,    1.7,   0.00,   0.00, 1031.4,   97.6, -999.0
12-01-2022, 00:20:44,    344,    0.0,    1.6,   0.00,   0.00, 1031.4,   97.7, -999.0
12-01-2022, 00:20:54,    344,    0.0,    1.7,   0.00,   0.00, 1031.4,   97.7, -999.0
12-01-2022, 00:21:04,    344,    0.0,    1.5,   0.00,   0.00, 1031.4,   97.6, -999.0
12-01-2022, 00:21:14,    344,    0.0,    1.7,   0.00,   0.00, 1031.4,   97.7, -999.0
12-01-2022, 00:21:24,    344,    0.0,    1.6,   0.00,   0.00, 1031.4,   97.7, -999.0
12-01-2022, 00:21:34,    344,    0.0,    1.7,   0.00,   0.00, 1031.4,   97.6, -999.0
12-01-2022, 00:21:44,    344,    0.0,    1.6,   0.00,   0.00, 1031.4,   97.7, -999.0
12-01-2022, 00:21:54,    344,    0.0,    1.6,   0.00,   0.00, 1031.4,   97.7, -999.0
12-01-2022, 00:22:04,    344,    0.0,    1.7,   0.00,   0.00, 1031.4,   97.7, -999.0
12-01-2022, 00:22:14,    343,    0.0,    1.7,   0.00,   0.00, 1031.4,   97.7, -999.0
12-01-2022, 00:22:24,    343,    0.0,    1.6,   0.00,   0.00, 1031.4,   97.7, -999.0
12-01-2022, 00:22:34,    343,    0.0,    1.7,   0.00,   0.00, 1031.4,   97.7, -999.0
12-01-2022, 00:22:43,    343,    0.0,    1.6,   0.00,   0.00, 1031.4,   97.8, -999.0
12-01-2022, 00:22:54,    343,    0.0,    1.6,   0.00,   0.00, 1031.4,   97.8, -999.0
12-01-2022, 00:23:03,    343,    0.0,    1.7,   0.00,   0.00, 1031.4,   97.8, -999.0
12-01-2022, 00:23:13,    343,    0.0,    1.6,   0.00,   0.00, 1031.4,   97.7, -999.0
12-01-2022, 00:23:23,    343,    0.0,    1.6,   0.00,   0.00, 1031.4,   97.7, -999.0
12-01-2022, 00:23:33,    343,    0.0,    1.6,   0.00,   0.00, 1031.4,   97.7, -999.0
12-01-2022, 00:23:43,    343,    0.0,    1.4,   0.00,   0.00, 1031.4,   97.8, -999.0
12-01-2022, 00:23:53,    343,    0.0,    1.6,   0.00,   0.00, 1031.4,   97.8, -999.0
12-01-2022, 00:24:03,    344,    0.2,    1.5,   0.00,   0.00, 1031.5,   97.9, -999.0
12-01-2022, 00:24:13,    344,    0.7,    1.6,   0.00,   0.00, 1031.6,   98.2, -999.0
12-01-2022, 00:24:23,    343,    0.2,    1.7,   0.00,   0.00, 1031.6,   98.0, -999.0
12-01-2022, 00:24:33,    344,    0.2,    1.6,   0.00,   0.00, 1031.5,   98.0, -999.0
12-01-2022, 00:24:43,    343,    0.7,    1.7,   0.00,   0.00, 1031.6,   98.1, -999.0
12-01-2022, 00:24:53,    343,    0.2,    1.6,   0.00,   0.00, 1031.6,   98.0, -999.0
12-01-2022, 00:25:03,    343,    0.0,    1.5,   0.00,   0.00, 1031.5,   97.9, -999.0
12-01-2022, 00:25:13,    344,    0.6,    1.6,   0.00,   0.00, 1031.6,   98.2, -999.0
12-01-2022, 00:25:23,    343,    0.0,    1.6,   0.00,   0.00, 1031.5,   97.9, -999.0
12-01-2022, 00:25:33,    343,    0.6,    1.6,   0.00,   0.00, 1031.6,   98.2, -999.0
12-01-2022, 00:25:42,    343,    0.5,    1.6,   0.00,   0.00, 1031.6,   98.3, -999.0
12-01-2022, 00:25:52,    343,    0.0,    1.5,   0.00,   0.00, 1031.5,   97.9, -999.0
12-01-2022, 00:26:03,    343,    0.1,    1.5,   0.00,   0.00, 1031.5,   97.9, -999.0
12-01-2022, 00:26:12,    343,    0.2,    1.5,   0.00,   0.00, 1031.5,   98.1, -999.0
12-01-2022, 00:26:22,    343,    0.0,    1.5,   0.00,   0.00, 1031.5,   97.9, -999.0
12-01-2022, 00:26:32,    343,    0.0,    1.5,   0.00,   0.00, 1031.5,   98.0, -999.0
12-01-2022, 00:26:42,    343,    0.0,    1.5,   0.00,   0.00, 1031.5,   98.0, -999.0
12-01-2022, 00:26:52,    343,    0.1,    1.4,   0.00,   0.00, 1031.5,   98.0, -999.0
12-01-2022, 00:27:02,    343,    0.2,    1.5,   0.00,   0.00, 1031.6,   98.1, -999.0
12-01-2022, 00:27:12,    343,    0.2,    1.6,   0.00,   0.00, 1031.6,   98.2, -999.0
12-01-2022, 00:27:22,    343,    0.0,    1.5,   0.00,   0.00, 1031.4,   97.9, -999.0
12-01-2022, 00:27:32,    343,    0.0,    1.4,   0.00,   0.00, 1031.4,   98.0, -999.0
12-01-2022, 00:27:42,    343,    0.0,    1.5,   0.00,   0.00, 1031.4,   98.0, -999.0
12-01-2022, 00:27:52,    343,    0.2,    1.5,   0.00,   0.00, 1031.5,   98.3, -999.0
12-01-2022, 00:28:02,    343,    0.7,    1.6,   0.00,   0.00, 1031.6,   98.5, -999.0
12-01-2022, 00:28:12,    343,    0.0,    1.6,   0.00,   0.00, 1031.5,   98.3, -999.0
12-01-2022, 00:28:22,    343,    0.0,    1.5,   0.00,   0.00, 1031.5,   98.2, -999.0
12-01-2022, 00:28:32,    342,    0.0,    1.5,   0.00,   0.00, 1031.4,   98.2, -999.0
12-01-2022, 00:28:42,    343,    0.0,    1.5,   0.00,   0.00, 1031.4,   98.3, -999.0
12-01-2022, 00:28:51,    343,    0.0,    1.5,   0.00,   0.00, 1031.5,   98.3, -999.0
12-01-2022, 00:29:01,    343,    0.1,    1.5,   0.00,   0.00, 1031.6,   98.3, -999.0
12-01-2022, 00:29:12,    342,    0.0,    1.5,   0.00,   0.00, 1031.5,   98.2, -999.0
12-01-2022, 00:29:21,    342,    0.0,    1.5,   0.00,   0.00, 1031.4,   98.2, -999.0
12-01-2022, 00:29:31,    343,    0.0,    1.5,   0.00,   0.00, 1031.5,   98.3, -999.0
12-01-2022, 00:29:42,    343,    0.0,    1.4,   0.00,   0.00, 1031.5,   98.1, -999.0
12-01-2022, 00:29:51,    342,    0.0,    1.4,   0.00,   0.00, 1031.4,   98.3, -999.0
12-01-2022, 00:30:01,    343,    0.0,    1.4,   0.00,   0.00, 1031.5,   98.3, -999.0
12-01-2022, 00:30:11,    343,    0.2,    1.6,   0.00,   0.00, 1031.6,   98.5, -999.0
12-01-2022, 00:30:21,    342,    0.1,    1.5,   0.00,   0.00, 1031.6,   98.5, -999.0
12-01-2022, 00:30:31,    342,    0.1,    1.6,   0.00,   0.00, 1031.6,   98.4, -999.0
12-01-2022, 00:30:41,    342,    0.0,    1.5,   0.00,   0.00, 1031.5,   98.3, -999.0
12-01-2022, 00:30:51,    342,    0.0,    1.5,   0.00,   0.00, 1031.5,   98.2, -999.0
12-01-2022, 00:31:01,    342,    0.0,    1.5,   0.00,   0.00, 1031.5,   98.3, -999.0
12-01-2022, 00:31:11,    342,    0.0,    1.5,   0.00,   0.00, 1031.5,   98.3, -999.0
12-01-2022, 00:31:21,    342,    0.0,    1.5,   0.00,   0.00, 1031.5,   98.2, -999.0
12-01-2022, 00:31:31,    342,    0.0,    1.5,   0.00,   0.00, 1031.5,   98.3, -999.0
12-01-2022, 00:31:41,    342,    0.0,    1.5,   0.00,   0.00, 1031.5,   98.2, -999.0
12-01-2022, 00:31:51,    342,    0.0,    1.5,   0.00,   0.00, 1031.6,   98.3, -999.0
12-01-2022, 00:32:00,    342,    0.0,    1.5,   0.00,   0.00, 1031.5,   98.3, -999.0
12-01-2022, 00:32:11,    342,    0.0,    1.5,   0.00,   0.00, 1031.5,   98.5, -999.0
12-01-2022, 00:32:21,    343,    0.0,    1.4,   0.00,   0.00, 1031.5,   98.4, -999.0
12-01-2022, 00:32:30,    342,    0.0,    1.5,   0.00,   0.00, 1031.5,   98.4, -999.0
12-01-2022, 00:32:40,    342,    0.0,    1.5,   0.00,   0.00, 1031.6,   98.3, -999.0
12-01-2022, 00:32:51,    342,    0.0,    1.5,   0.00,   0.00, 1031.5,   98.2, -999.0
12-01-2022, 00:33:00,    342,    0.0,    1.5,   0.00,   0.00, 1031.6,   98.4, -999.0
12-01-2022, 00:33:10,    342,    0.0,    1.5,   0.00,   0.00, 1031.5,   98.3, -999.0
12-01-2022, 00:33:20,    342,    0.0,    1.4,   0.00,   0.00, 1031.6,   98.2, -999.0
12-01-2022, 00:33:30,    342,    0.0,    1.4,   0.00,   0.00, 1031.6,   98.2, -999.0
12-01-2022, 00:33:40,    342,    0.0,    1.4,   0.00,   0.00, 1031.6,   98.2, -999.0
12-01-2022, 00:33:50,    342,    0.0,    1.4,   0.00,   0.00, 1031.6,   98.2, -999.0
12-01-2022, 00:34:00,    342,    0.0,    1.4,   0.00,   0.00, 1031.6,   98.4, -999.0
12-01-2022, 00:34:10,    342,    0.0,    1.5,   0.00,   0.00, 1031.6,   98.4, -999.0
12-01-2022, 00:34:20,    342,    0.0,    1.5,   0.00,   0.00, 1031.6,   98.5, -999.0
12-01-2022, 00:34:30,    342,    0.0,    1.5,   0.00,   0.00, 1031.6,   98.4, -999.0
12-01-2022, 00:34:40,    342,    0.0,    1.5,   0.00,   0.00, 1031.6,   98.5, -999.0
12-01-2022, 00:34:50,    342,    0.0,    1.5,   0.00,   0.00, 1031.6,   98.5, -999.0
12-01-2022, 00:35:00,    342,    0.0,    1.5,   0.00,   0.00, 1031.6,   98.5, -999.0
12-01-2022, 00:35:09,    342,    0.0,    1.4,   0.00,   0.00, 1031.6,   98.4, -999.0
12-01-2022, 00:35:20,    342,    0.0,    1.4,   0.00,   0.00, 1031.6,   98.5, -999.0
12-01-2022, 00:35:30,    342,    0.0,    1.4,   0.00,   0.00, 1031.6,   98.4, -999.0
12-01-2022, 00:35:39,    342,    0.0,    1.5,   0.00,   0.00, 1031.6,   98.6, -999.0
12-01-2022, 00:35:49,    342,    0.0,    1.4,   0.00,   0.00, 1031.6,   98.5, -999.0
12-01-2022, 00:36:00,    342,    0.0,    1.4,   0.00,   0.00, 1031.6,   98.5, -999.0
12-01-2022, 00:36:09,    342,    0.0,    1.4,   0.00,   0.00, 1031.6,   98.5, -999.0
12-01-2022, 00:36:19,    342,    0.0,    1.4,   0.00,   0.00, 1031.6,   98.5, -999.0
12-01-2022, 00:36:29,    342,    0.0,    1.4,   0.00,   0.00, 1031.6,   98.6, -999.0
12-01-2022, 00:36:39,    342,    0.0,    1.5,   0.00,   0.00, 1031.6,   98.5, -999.0
12-01-2022, 00:36:49,    342,    0.0,    1.4,   0.00,   0.00, 1031.6,   98.5, -999.0
12-01-2022, 00:36:59,    342,    0.0,    1.4,   0.00,   0.00, 1031.6,   98.4, -999.0
12-01-2022, 00:37:09,    342,    0.0,    1.4,   0.00,   0.00, 1031.6,   98.5, -999.0
12-01-2022, 00:37:19,    342,    0.0,    1.5,   0.00,   0.00, 1031.6,   98.4, -999.0
12-01-2022, 00:37:29,    342,    0.0,    1.4,   0.00,   0.00, 1031.6,   98.6, -999.0
12-01-2022, 00:37:39,    342,    0.0,    1.5,   0.00,   0.00, 1031.6,   98.5, -999.0
12-01-2022, 00:37:49,    342,    0.0,    1.4,   0.00,   0.00, 1031.6,   98.5, -999.0
12-01-2022, 00:37:59,    342,    0.0,    1.5,   0.00,   0.00, 1031.6,   98.6, -999.0
12-01-2022, 00:38:09,    342,    0.0,    1.5,   0.00,   0.00, 1031.6,   98.6, -999.0
12-01-2022, 00:38:19,    342,    0.0,    1.5,   0.00,   0.00, 1031.6,   98.6, -999.0
12-01-2022, 00:38:29,    342,    0.0,    1.4,   0.00,   0.00, 1031.6,   98.6, -999.0
12-01-2022, 00:38:39,    342,    0.0,    1.5,   0.00,   0.00, 1031.6,   98.6, -999.0
12-01-2022, 00:38:48,    342,    0.0,    1.5,   0.00,   0.00, 1031.7,   98.5, -999.0
12-01-2022, 00:38:59,    342,    0.0,    1.5,   0.00,   0.00, 1031.7,   98.6, -999.0
12-01-2022, 00:39:08,    342,    0.0,    1.5,   0.00,   0.00, 1031.6,   98.5, -999.0
12-01-2022, 00:39:18,    342,    0.0,    1.4,   0.00,   0.00, 1031.7,   98.6, -999.0
12-01-2022, 00:39:28,    342,    0.0,    1.5,   0.00,   0.00, 1031.7,   98.6, -999.0
12-01-2022, 00:39:38,    342,    0.0,    1.4,   0.00,   0.00, 1031.7,   98.6, -999.0
12-01-2022, 00:39:48,    342,    0.0,    1.4,   0.00,   0.00, 1031.6,   98.6, -999.0
12-01-2022, 00:39:58,    342,    0.0,    1.4,   0.00,   0.00, 1031.7,   98.5, -999.0
12-01-2022, 00:40:08,    342,    0.0,    1.4,   0.00,   0.00, 1031.7,   98.6, -999.0
12-01-2022, 00:40:18,    342,    0.0,    1.4,   0.00,   0.00, 1031.7,   98.6, -999.0
12-01-2022, 00:40:28,    342,    0.0,    1.4,   0.00,   0.00, 1031.7,   98.6, -999.0
12-01-2022, 00:40:38,    342,    0.0,    1.4,   0.00,   0.00, 1031.7,   98.7, -999.0
12-01-2022, 00:40:48,    342,    0.0,    1.3,   0.00,   0.00, 1031.7,   98.6, -999.0
12-01-2022, 00:40:58,    342,    0.0,    1.4,   0.00,   0.00, 1031.7,   98.8, -999.0
12-01-2022, 00:41:08,    342,    0.0,    1.5,   0.00,   0.00, 1031.7,   98.7, -999.0
12-01-2022, 00:41:18,    342,    0.0,    1.4,   0.00,   0.00, 1031.7,   98.7, -999.0
12-01-2022, 00:41:28,    342,    0.0,    1.4,   0.00,   0.00, 1031.7,   98.7, -999.0
12-01-2022, 00:41:38,    342,    0.0,    1.5,   0.00,   0.00, 1031.7,   98.8, -999.0
12-01-2022, 00:41:47,    342,    0.0,    1.4,   0.00,   0.00, 1031.7,   98.7, -999.0
12-01-2022, 00:41:57,    342,    0.0,    1.4,   0.00,   0.00, 1031.7,   98.7, -999.0
12-01-2022, 00:42:09,    342,    0.0,    1.4,   0.00,   0.00, 1031.8,   98.6, -999.0
12-01-2022, 00:42:17,    342,    0.0,    1.5,   0.00,   0.00, 1031.7,   98.8, -999.0
12-01-2022, 00:42:27,    342,    0.0,    1.4,   0.00,   0.00, 1031.7,   98.8, -999.0
12-01-2022, 00:42:38,    342,    0.0,    1.5,   0.00,   0.00, 1031.7,   98.7, -999.0
12-01-2022, 00:42:47,    342,    0.0,    1.5,   0.00,   0.00, 1031.7,   98.7, -999.0
12-01-2022, 00:42:57,    342,    0.0,    1.5,   0.00,   0.00, 1031.8,   98.7, -999.0
12-01-2022, 00:43:07,    342,    0.0,    1.5,   0.00,   0.00, 1031.8,   98.7, -999.0
12-01-2022, 00:43:17,    342,    0.0,    1.4,   0.00,   0.00, 1031.8,   98.7, -999.0
12-01-2022, 00:43:27,    342,    0.0,    1.5,   0.00,   0.00, 1031.8,   98.7, -999.0
12-01-2022, 00:43:37,    342,    0.0,    1.4,   0.00,   0.00, 1031.8,   98.7, -999.0
12-01-2022, 00:43:47,    342,    0.0,    1.5,   0.00,   0.00, 1031.8,   98.7, -999.0
12-01-2022, 00:43:57,    342,    0.0,    1.5,   0.00,   0.00, 1031.8,   98.8, -999.0
12-01-2022, 00:44:07,    342,    0.0,    1.5,   0.00,   0.00, 1031.8,   98.7, -999.0
12-01-2022, 00:44:19,    342,    0.0,    1.4,   0.00,   0.00, 1031.8,   98.7, -999.0
12-01-2022, 00:44:27,    342,    0.0,    1.4,   0.00,   0.00, 1031.8,   98.6, -999.0
12-01-2022, 00:44:37,    342,    0.0,    1.5,   0.00,   0.00, 1031.8,   98.8, -999.0
12-01-2022, 00:44:47,    342,    0.0,    1.5,   0.00,   0.00, 1031.8,   98.7, -999.0
12-01-2022, 00:44:57,    342,    0.0,    1.5,   0.00,   0.00, 1031.8,   98.7, -999.0
12-01-2022, 00:45:06,    342,    0.0,    1.4,   0.00,   0.00, 1031.8,   98.7, -999.0
12-01-2022, 00:45:17,    342,    0.0,    1.4,   0.00,   0.00, 1031.8,   98.7, -999.0
12-01-2022, 00:45:27,    342,    0.0,    1.4,   0.00,   0.00, 1031.8,   98.7, -999.0
12-01-2022, 00:45:36,    342,    0.0,    1.4,   0.00,   0.00, 1031.8,   98.6, -999.0
12-01-2022, 00:45:46,    342,    0.0,    1.3,   0.00,   0.00, 1031.8,   98.7, -999.0
12-01-2022, 00:45:57,    342,    0.0,    1.3,   0.00,   0.00, 1031.8,   98.7, -999.0
12-01-2022, 00:46:06,    342,    0.0,    1.3,   0.00,   0.00, 1031.8,   98.7, -999.0
12-01-2022, 00:46:16,    342,    0.0,    1.4,   0.00,   0.00, 1031.8,   98.7, -999.0
12-01-2022, 00:46:26,    342,    0.0,    1.3,   0.00,   0.00, 1031.8,   98.7, -999.0
12-01-2022, 00:46:36,    342,    0.0,    1.4,   0.00,   0.00, 1031.8,   98.6, -999.0